Middlebury State AP, Middlebu, VT

12:42 PM EDT on May 27, 2018 (GMT -0400)
Middlebury State AP, Middlebu

Weather History for K6B0 - May, 2014

Change the Weather History Date:

Saturday, May 17, 2014

  Actual Average (WUND) Record (WUND)
Temperature  
Mean Temperature 59 °F -  
Max Temperature 65 °F - - (-1)
Min Temperature 46 °F - - (-1)
Degree Days  
Heating Degree Days 6    
Growing Degree Days 9 (Base 50)    
Moisture  
Dew Point 46 °F    
Average Humidity 73    
Maximum Humidity 100    
Minimum Humidity 38    
Precipitation  
Precipitation 0.79 in - - ()
Sea Level Pressure  
Sea Level Pressure 29.94 in    
Wind  
Wind Speed 8 mph (SE)    
Max Wind Speed 18 mph    
Max Gust Speed 33 mph    
Visibility 9 miles    
Events Rain    
Averages and records for this station are not official NWS values.
T = Trace of Precipitation, MM = Missing Value Source: NWS Daily Summary

Daily Weather History Graph

Daily Weather History Graph

Search for Another Location

Airport or City:

Astronomy

May. 17, 2014 Rise Set
Actual Time 5:24 AM EDT 8:13 PM EDT
Civil Twilight 4:50 AM EDT 8:47 PM EDT
Nautical Twilight 4:08 AM EDT 9:30 PM EDT
Astronomical Twilight 3:18 AM EDT 10:20 PM EDT
Moon 11:11 PM EDT (5/17) 8:04 AM EDT (5/17)
Length of Visible Light 15h 56m
Length of Day
14h 49m
Waning Gibbous, 89% of the Moon is Illuminated
May 17
Waning Gibbous
May 21
Last Quarter
May 28
New
Jun 5
First Quarter
Jun 13
Full

Hourly Weather History & Observations

Time (EDT) Temp. Dew Point Humidity Pressure Visibility Wind Dir Wind Speed Gust Speed Precip Events Conditions
12:15 AM 72.9 °F 59.5 °F 63% 29.79 in 10.0 mi ESE 18.4 mph 33.4 mph N/A   Overcast
12:35 AM 71.8 °F 59.9 °F 66% 29.79 in 10.0 mi SE 15.0 mph 20.7 mph N/A   Overcast
12:55 AM 66.2 °F 62.8 °F 89% 29.79 in 10.0 mi SE 9.2 mph 16.1 mph N/A Rain Heavy Rain
1:15 AM 64.4 °F 63.9 °F 98% 29.78 in 10.0 mi East 5.8 mph - N/A Rain Light Rain
1:35 AM 63.5 °F 63.5 °F 100% 29.79 in 5.0 mi ESE 8.1 mph - 0.09 in Rain Heavy Rain
1:55 AM 60.6 °F 60.3 °F 99% 29.78 in 7.0 mi SW 8.1 mph - 0.16 in Rain Rain
2:15 AM 57.6 °F 57.6 °F 100% 29.78 in 5.0 mi WNW 5.8 mph - 0.05 in Rain Heavy Rain
2:35 AM 56.5 °F 56.5 °F 100% 29.75 in 7.0 mi NW 5.8 mph - 0.10 in Rain Rain
2:55 AM 53.8 °F 53.8 °F 100% 29.84 in 2.0 mi ESE 8.1 mph 23.0 mph 0.18 in Rain Heavy Rain
3:15 AM 53.2 °F 53.2 °F 100% 29.84 in 3.0 mi Calm Calm - 0.10 in Rain Heavy Rain
3:35 AM 53.1 °F 53.1 °F 100% 29.84 in 7.0 mi Calm Calm - 0.23 in Rain Rain
3:55 AM 52.9 °F 52.9 °F 100% 29.87 in 4.0 mi SE 5.8 mph - 0.32 in   Heavy Drizzle
4:15 AM 52.3 °F 52.3 °F 100% 29.86 in 3.0 mi Calm Calm - 0.05 in Rain Heavy Rain
4:35 AM 52.2 °F 52.2 °F 100% 29.83 in 4.0 mi SSW 3.5 mph - 0.07 in   Drizzle
4:55 AM 51.4 °F 51.4 °F 100% 29.86 in 3.0 mi Calm Calm - 0.07 in   Drizzle
5:15 AM 51.6 °F 51.6 °F 100% 29.88 in 3.0 mi SE 6.9 mph - N/A   Drizzle
5:55 AM 50.2 °F 50.2 °F 100% 29.88 in 3.0 mi South 5.8 mph - 0.04 in Rain Rain
6:15 AM 50.0 °F 50.0 °F 100% 29.84 in 7.0 mi South 4.6 mph - 0.01 in Rain Rain
6:35 AM 49.8 °F 49.8 °F 100% 29.88 in 10.0 mi SE 10.4 mph - 0.01 in   Overcast
6:55 AM 49.1 °F 49.1 °F 100% 29.90 in 2.0 mi SE 8.1 mph - 0.01 in Rain Rain
7:15 AM 48.6 °F 48.6 °F 100% 29.90 in 1.8 mi ESE 6.9 mph - 0.01 in   Drizzle
7:35 AM 48.7 °F 48.7 °F 100% 29.90 in 5.0 mi Calm Calm - 0.01 in   Overcast
7:55 AM 49.6 °F 49.6 °F 100% 29.90 in 10.0 mi East 5.8 mph - 0.01 in   Overcast
8:15 AM 50.0 °F 49.3 °F 97% 29.92 in 10.0 mi ESE 6.9 mph - N/A   Overcast
8:35 AM 50.2 °F 49.1 °F 96% 29.92 in 10.0 mi SE 9.2 mph 17.3 mph N/A   Overcast
8:55 AM 51.6 °F 48.7 °F 90% 29.92 in 10.0 mi ESE 9.2 mph - N/A   Overcast
9:15 AM 50.9 °F 46.2 °F 84% 29.93 in 10.0 mi SE 13.8 mph - N/A   Overcast
9:35 AM 52.7 °F 45.7 °F 77% 29.94 in 10.0 mi ESE 11.5 mph 19.6 mph N/A   Mostly Cloudy
9:55 AM 50.9 °F 40.8 °F 68% 29.95 in 10.0 mi SSE 10.4 mph 17.3 mph N/A   Overcast
10:35 AM 54.5 °F 41.5 °F 62% 29.95 in 10.0 mi SE 12.7 mph 19.6 mph N/A   Mostly Cloudy
10:55 AM 54.5 °F 41.5 °F 62% 29.95 in 10.0 mi SE 9.2 mph 16.1 mph N/A   Mostly Cloudy
11:15 AM 55.8 °F 41.4 °F 58% 29.95 in 10.0 mi SE 11.5 mph 20.7 mph N/A   Mostly Cloudy
11:35 AM 56.7 °F 41.0 °F 56% 29.96 in 10.0 mi SE 12.7 mph 18.4 mph N/A   Scattered Clouds
11:55 AM 57.7 °F 42.1 °F 56% 29.97 in 10.0 mi South 9.2 mph 17.3 mph N/A   Scattered Clouds
12:15 PM 57.9 °F 41.9 °F 55% 29.98 in 10.0 mi SSE 9.2 mph 17.3 mph N/A   Mostly Cloudy
12:35 PM 57.4 °F 41.9 °F 56% 29.97 in 10.0 mi SE 10.4 mph 17.3 mph N/A   Mostly Cloudy
12:55 PM 58.8 °F 42.1 °F 54% 29.97 in 10.0 mi SE 10.4 mph 17.3 mph N/A   Scattered Clouds
1:15 PM 59.4 °F 42.4 °F 54% 29.97 in 10.0 mi SE 11.5 mph 18.4 mph N/A   Scattered Clouds
1:35 PM 58.8 °F 42.3 °F 54% 29.98 in 10.0 mi SSE 10.4 mph 20.7 mph N/A   Scattered Clouds
1:55 PM 59.4 °F 42.8 °F 54% 29.97 in 10.0 mi SE 6.9 mph 16.1 mph N/A   Mostly Cloudy
2:15 PM 60.1 °F 41.2 °F 50% 29.97 in 10.0 mi SE 9.2 mph 20.7 mph N/A   Scattered Clouds
2:35 PM 60.4 °F 41.5 °F 50% 29.97 in 10.0 mi SE 9.2 mph - N/A   Scattered Clouds
2:55 PM 61.5 °F 41.5 °F 48% 29.98 in 10.0 mi SE 9.2 mph - N/A   Scattered Clouds
3:15 PM 61.3 °F 41.2 °F 48% 29.98 in 10.0 mi SE 11.5 mph 16.1 mph N/A   Scattered Clouds
3:35 PM 61.5 °F 40.6 °F 46% 29.98 in 10.0 mi SE 10.4 mph 17.3 mph N/A   Scattered Clouds
3:55 PM 62.1 °F 39.2 °F 43% 29.98 in 10.0 mi SSE 6.9 mph - N/A   Clear
4:15 PM 62.4 °F 38.5 °F 41% 29.99 in 10.0 mi SSE 8.1 mph - N/A   Clear
4:35 PM 62.8 °F 39.6 °F 42% 29.99 in 10.0 mi SE 10.4 mph 16.1 mph N/A   Clear
4:55 PM 62.6 °F 38.7 °F 41% 29.99 in 10.0 mi South 6.9 mph 16.1 mph N/A   Clear
5:15 PM 62.6 °F 37.2 °F 39% 29.99 in 10.0 mi SSE 11.5 mph - N/A   Clear
5:35 PM 62.8 °F 37.4 °F 39% 29.99 in 10.0 mi SSE 8.1 mph - N/A   Clear
5:55 PM 62.6 °F 36.9 °F 38% 29.99 in 10.0 mi SE 9.2 mph 16.1 mph N/A   Clear
6:15 PM 62.6 °F 37.4 °F 39% 29.99 in 10.0 mi SE 6.9 mph 10.4 mph N/A   Clear
6:35 PM 62.2 °F 36.5 °F 38% 29.99 in 10.0 mi SE 5.8 mph - N/A   Clear
6:55 PM 61.7 °F 38.1 °F 42% 30.00 in 10.0 mi SE 9.2 mph - N/A   Clear
7:15 PM 59.5 °F 39.7 °F 48% 30.01 in 10.0 mi ESE 3.5 mph - N/A   Clear
7:35 PM 57.7 °F 40.3 °F 52% 30.02 in 10.0 mi ESE 3.5 mph - N/A   Clear
7:55 PM 57.4 °F 40.5 °F 53% 30.03 in 10.0 mi ESE 5.8 mph - N/A   Clear
8:15 PM 56.7 °F 40.5 °F 55% 30.03 in 10.0 mi Calm Calm - N/A   Scattered Clouds
8:35 PM 52.9 °F 43.2 °F 70% 30.04 in 10.0 mi Calm Calm - N/A   Mostly Cloudy
8:55 PM 54.3 °F 42.3 °F 64% 30.05 in 10.0 mi Calm Calm - N/A   Mostly Cloudy
9:15 PM 52.2 °F 43.5 °F 72% 30.07 in 10.0 mi Calm Calm - N/A   Mostly Cloudy
9:35 PM 51.3 °F 43.7 °F 75% 30.08 in 10.0 mi Calm Calm - N/A   Mostly Cloudy
9:55 PM 50.0 °F 43.3 °F 78% 30.08 in 10.0 mi Calm Calm - N/A   Scattered Clouds
10:15 PM 48.9 °F 43.9 °F 83% 30.09 in 10.0 mi Calm Calm - N/A   Clear
10:35 PM 48.0 °F 44.8 °F 89% 30.10 in 10.0 mi Calm Calm - N/A   Scattered Clouds
10:55 PM 47.7 °F 45.7 °F 93% 30.10 in 10.0 mi ENE 3.5 mph - N/A   Scattered Clouds
11:15 PM 46.9 °F 45.7 °F 95% 30.11 in 10.0 mi Calm Calm - N/A   Mostly Cloudy
11:35 PM 47.1 °F 45.7 °F 95% 30.11 in 10.0 mi Calm Calm - N/A   Mostly Cloudy